METEOSAT-8 (MSG-1)

Last updated on Oct. 25, 2020, 5:55 a.m. UTC

1 27509U 02040B   20298.48502134  .00000127  00000-0  00000+0 0  9996
2 27509   6.9527  53.5332 0001383 197.9443 357.8408  1.00271354 66579
UTC
Height (km)
Latitude
Longitude
Inclination
Orbital Period
UTC large
Height (km)
Speed (km/s)
/
Latitude / Longitude
Inclination (degrees)
Orbital Period (minutes)
Azimuth
Elevation
Range (km)
Doppler Factor
iOS Compass Heading
iOS Angle

Next 30 passes for location: Hong Kong

Rise time Rise Azimuth (degrees) Set time Set Azimuth (degrees) Duration Max altitude (degrees)

No matching passes for this satellites